Location: Waco, TX
(31.5480°N, 97.1670°W)
Time: 02:19:40
(UTC-06:00)

ISS - Pass Details

Date: 31 January 2021
Orbit: 417 x 422 km, 51.6° (Epoch: 09 March)

Event Time Altitude Azimuth Distance (km) Brightness Sun altitude
Rises 22:06:15 0° 302° (WNW) 2,369 - -51.9°
Reaches altitude 10° 22:08:33 10° 290° (WNW) 1,502 - -52.3°
Maximum altitude 22:11:26 26° 231° (SW) 862 - -52.9°
Drops below altitude 10° 22:14:17 10° 173° (S) 1,493 - -53.5°
Sets 22:16:35 0° 160° (SSE) 2,353 - -54.0°
